User: anonymous
Location: Camp Creek
(33.9000°N, 111.8167°W)
Time: 08:31:44
(UTC-07:00)
Language:

DELTA 2 R/B (1) - Orbit

View from above orbital plane
View from above orbital plane
View from above satellite
View from above satellite

Ground track
Ground track

The orbit data is extracted from the following two-line orbital elements,

1 27665U 03005C   14110.84614686  .00000127  00000-0  84238-4 0    51
2 27665 039.5749 221.9455 0009314 328.9307 182.2386 14.28180441585980
Epoch (UTC): 20 April 2014 20:18:27
Eccentricity: 0.0009314
inclination: 39.5749°
perigee height: 791 km
apogee height: 804 km
right ascension of ascending node: 221.9455°
argument of perigee: 328.9307°
revolutions per day: 14.28180441
mean anomaly at epoch: 182.2386°
orbit number at epoch: 58598

The dashed part of the orbit path shows where the satellite is in the earth's shadow,  

DLR